Butler, PA

10:03 PM EST on November 11, 2019 (GMT -0500)
Butler County-Scholter

Weather History for KBTP - October, 2019

Change the Weather History Date:

Tuesday, October 15, 2019

  Actual Average Record
Temperature  
Mean Temperature 48 °F -  
Max Temperature 64 °F 58 °F 82 °F (1975)
Min Temperature 33 °F 40 °F 25 °F (1988)
Degree Days  
Heating Degree Days 16    
Moisture  
Dew Point 38 °F    
Average Humidity 72    
Maximum Humidity 100    
Minimum Humidity 39    
Precipitation  
Precipitation 0.00 in - - ()
Sea Level Pressure  
Sea Level Pressure 30.08 in    
Wind  
Wind Speed 2 mph (SE)    
Max Wind Speed 10 mph    
Max Gust Speed -    
Visibility 9 miles    
Events      
Averages and records for this station are not official NWS values.
T = Trace of Precipitation, MM = Missing Value Source: NWS Daily Summary

Daily Weather History Graph

Daily Weather History Graph

Search for Another Location

Airport or City:

Astronomy

Oct. 15, 2019 Rise Set
Actual Time 7:30 AM EDT 6:39 PM EDT
Civil Twilight 7:03 AM EDT 7:07 PM EDT
Nautical Twilight 6:31 AM EDT 7:39 PM EDT
Astronomical Twilight 5:59 AM EDT 8:10 PM EDT
Moon 7:58 PM EDT (10/15) 9:00 AM EDT (10/15)
Length of Visible Light 12h 04m
Length of Day
11h 09m
Full, 97% of the Moon is Illuminated
Oct 15
Full
Oct 21
Last Quarter
Oct 27
New
Nov 4
First Quarter
Nov 12
Full

Hourly Weather History & Observations

Time (EDT) Temp. Windchill Dew Point Humidity Pressure Visibility Wind Dir Wind Speed Gust Speed Precip Events Conditions
12:56 AM 39.0 °F - 37.0 °F 93% 30.17 in 10.0 mi Calm Calm - N/A   Clear
1:56 AM 37.9 °F - 37.0 °F 97% 30.17 in 9.0 mi Calm Calm - N/A   Clear
2:56 AM 37.0 °F - 36.0 °F 96% 30.18 in 10.0 mi Calm Calm - N/A   Clear
3:50 AM 35.6 °F - 35.6 °F 100% 30.15 in 1.8 mi Calm Calm - N/A   Clear
3:56 AM 35.1 °F - 35.1 °F 100% 30.18 in 2.0 mi Calm Calm - N/A   Clear
4:04 AM 35.6 °F - 35.6 °F 100% 30.14 in 10.0 mi Calm Calm - N/A   Clear
4:56 AM 34.0 °F - 33.1 °F 96% 30.19 in 8.0 mi Calm Calm - N/A   Clear
5:56 AM 34.0 °F - 33.1 °F 96% 30.19 in 10.0 mi Calm Calm - N/A   Clear
6:56 AM 33.1 °F 30.0 °F 32.0 °F 96% 30.20 in 10.0 mi NNE 3.5 mph - N/A   Clear
7:56 AM 33.1 °F - 32.0 °F 96% 30.20 in 9.0 mi Calm Calm - N/A   Clear
8:56 AM 39.0 °F - 37.9 °F 96% 30.20 in 10.0 mi Calm Calm - N/A   Clear
9:56 AM 48.0 °F - 39.9 °F 74% 30.19 in 10.0 mi Calm Calm - N/A   Partly Cloudy
10:56 AM 52.0 °F - 42.1 °F 69% 30.17 in 10.0 mi SE 3.5 mph - N/A   Clear
11:56 AM 55.9 °F - 39.9 °F 55% 30.14 in 10.0 mi ESE 5.8 mph - N/A   Clear
12:56 PM 60.1 °F - 41.0 °F 49% 30.12 in 10.0 mi Variable 6.9 mph - N/A   Clear
1:56 PM 62.1 °F - 43.0 °F 50% 30.08 in 10.0 mi SSE 8.1 mph - N/A   Clear
2:56 PM 64.0 °F - 39.9 °F 41% 30.04 in 10.0 mi SE 4.6 mph - N/A   Clear
3:56 PM 64.9 °F - 39.9 °F 40% 30.01 in 10.0 mi South 6.9 mph - N/A   Clear
4:56 PM 64.9 °F - 39.0 °F 39% 29.99 in 10.0 mi South 10.4 mph - N/A   Clear
5:56 PM 63.0 °F - 41.0 °F 45% 29.96 in 10.0 mi SE 4.6 mph - N/A   Clear
6:56 PM 59.0 °F - 42.1 °F 53% 29.96 in 10.0 mi East 3.5 mph - N/A   Clear
7:56 PM 57.9 °F - 39.9 °F 51% 29.95 in 10.0 mi Calm Calm - N/A   Clear
8:56 PM 54.0 °F - 39.9 °F 59% 29.92 in 10.0 mi ESE 3.5 mph - N/A   Clear
9:56 PM 55.9 °F - 41.0 °F 57% 29.91 in 10.0 mi ESE 5.8 mph - N/A   Mostly Cloudy
10:56 PM 55.0 °F - 43.0 °F 64% 29.89 in 10.0 mi ESE 5.8 mph - N/A   Scattered Clouds
11:56 PM 55.9 °F - 43.0 °F 62% 29.87 in 10.0 mi SE 5.8 mph - N/A   Mostly Cloudy